Flag for Germany Weather past 2 weeks in Göttingen, Lower Saxony, Germany

Now
66 °F

Passing clouds.


Feels Like: 66 °F
Forecast: 41 / 72 °F
Wind: 5 mph from North

Location: Kassel / Calden

Current Time: Aug 27, 2014 at 5:49:08 PM

Latest Report: Aug 27, 2014 at 5:20 PM


Visibility: N/A

Pressure: 30.04 "Hg

Humidity: 46%

Dew point: 45 °F

Location of GöttingenLocation

Historic Weather in Göttingen — Graph

°F

Göttingen temperature yesterday

Maximum temperature yesterday: 59 °F (at 11:50 AM)
Minimum temperature yesterday: 54 °F (at 5:50 AM)
Average temperature yesterday: 56 °F

Past Weeks' High & Low Weather Summary

 TemperatureHumidityPressure
High70 °F (Aug 12, 4:20 PM)100% (Aug 14, 6:20 AM)30.09 "Hg (Aug 14, 6:20 AM)
Low45 °F (Aug 25, 5:50 AM)40% (Aug 12, 4:20 PM)29.65 "Hg (Aug 13, 3:20 PM)
Average58 °F74%29.89 "Hg
* Reported Aug 12 4:20 PM — Aug 27 4:20 PM, Göttingen, Weather by CustomWeather, © 2014

Note: Actual official high and low records may vary slightly from our data, if they occured in-between our weather recording intervals... More about our weather records

Advertising

Göttingen weather history for previous 24 hours

 ConditionsComfort  
Time TempWeatherWind HumidityBarometerVisibility
4:20 PM
Aug 27
68 °FScattered clouds.2 mph46%30.04 "HgN/A
3:50 PM66 °FScattered clouds.3 mph43%30.04 "HgN/A
3:20 PM66 °FScattered clouds.5 mph49%30.04 "HgN/A
2:50 PM64 °FScattered clouds.7 mph52%30.04 "HgN/A
2:20 PM64 °FScattered clouds.5 mph52%30.04 "HgN/A
1:50 PM64 °FScattered clouds.3 mph49%30.04 "HgN/A
1:20 PM64 °FScattered clouds.3 mph52%30.04 "HgN/A
12:20 PM63 °FPassing clouds.2 mph59%30.04 "HgN/A
11:50 AM61 °FPassing clouds.3 mph72%30.04 "HgN/A
11:20 AM59 °FPassing clouds.3 mph77%30.01 "HgN/A
10:50 AM55 °FPassing clouds.3 mph82%30.01 "HgN/A
10:20 AM54 °FScattered clouds.3 mph88%30.01 "HgN/A
9:50 AM52 °FPartly sunny.1 mph100%30.01 "Hg4 mi
9:20 AM50 °FPartly sunny.2 mph94%29.98 "Hg1 mi
8:50 AM48 °FFog.3 mph100%29.98 "Hg1 mi
8:20 AM48 °FFog.3 mph100%29.98 "Hg0 mi
7:50 AM48 °FFog.5 mph100%29.95 "Hg0 mi
7:20 AM48 °FFog.3 mph94%29.95 "Hg0 mi
6:50 AM46 °FFog.3 mph100%29.92 "Hg0 mi
6:20 AM48 °FFog.5 mph100%29.92 "Hg0 mi
5:50 AM48 °FFog.5 mph100%29.92 "Hg0 mi
9:50 PM
Aug 26
55 °FPassing clouds.2 mph94%29.80 "HgN/A
9:20 PM55 °FPartly sunny.5 mph88%29.80 "HgN/A
8:50 PM55 °FPartly sunny.5 mph88%29.77 "HgN/A
8:20 PM55 °FPartly sunny.3 mph94%29.77 "HgN/A
7:50 PM57 °FPartly sunny.6 mph88%29.77 "HgN/A
7:20 PM57 °FPartly sunny.7 mph88%29.77 "HgN/A
6:50 PM57 °FPartly sunny.6 mph88%29.77 "HgN/A
6:20 PM57 °FLight rain. Broken clouds.3 mph88%29.77 "HgN/A
5:50 PM59 °FBroken clouds.2 mph82%29.77 "HgN/A
5:20 PM59 °FBroken clouds.3 mph82%29.77 "HgN/A
Weather by CustomWeather, © 2014

See weather overviewHow to use our weather pages